User: anonymous   Login
Location: Gro�sch�nbrunn
(49.5760°N, 11.8868°E)
Time: 12:16:30
(UTC+00:00)
Language:

Terra - Orbit

View from above orbital plane
View from above orbital plane
View from above satellite
View from above satellite

Ground track
Ground track

The orbit data is extracted from the following two-line orbital elements,

1 25994U 99068A   20331.16736081  .00000093  00000-0  30727-4 0  9997
2 25994  98.1995  43.0816 0001155  91.2209 298.4620 14.57118473113860
Epoch (UTC): 26 November 2020 04:00:59
Eccentricity: 0.0001155
inclination: 98.1995°
perigee height: 701 km
apogee height: 703 km
right ascension of ascending node: 43.0816°
argument of perigee: 91.2209°
revolutions per day: 14.57118473
mean anomaly at epoch: 298.4620°
orbit number at epoch: 11386

The dashed part of the orbit path shows where the satellite is in the earth's shadow,  

DLR